Location: ?
(35.4064°N, 139.3593°E)
Time: 17:53:13
(UTC+00:00)

ACS3 Solar Sail - Pass Details

Date: 26 June 2024
Orbit: 993 x 1023 km, 97.4° (Epoch: 21 July)

Event Time Altitude Azimuth Distance (km) Brightness Sun altitude
Exits shadow 13:02:46 28° 223° (SW) 1,765 5.9 -26.4°
Maximum altitude 13:05:02 37° 264° (W) 1,499 5.9 -26.6°
Drops below altitude 10° 13:10:44 10° 331° (NNW) 2,763 8.2 -27.1°
Sets 13:13:26 0° 339° (NNW) 3,715 9.1 -27.3°
